TURKU/ABO current weather conditions

sailwx.info

Wind from 270 at 7 knots

Air temperature 5.0° C
Visibility: greater than 5.4 NM
Dewpoint 2.0° C

Last reported at 2020-Jan-26 08:50 UTC.
Time now 2020-Jan-26 10:16 UTC

Location: N 60°31' E 022°16'.
View on Google Maps.

See reports from other nearby stations

  
Tides and Currents Weather Stations Pressure Air Temp Water Temp Dewpoint Dewpoint Depression Visibility Wind Speed Wind Dir Waves Ship Positions
date/time (UTC)wind fromknots sea level pressurealtimeterstation pressurevisibilityair tempwater tempwave heightnotes
2020-Jan-26 08:50 270 7 5.4 5.0
2020-Jan-26 08:20 270 8 5.4 4.0
2020-Jan-26 07:50 270 9 5.4 4.0
2020-Jan-26 07:20 260 9 5.4 3.0
2020-Jan-26 06:50 260 9 5.4 3.0
2020-Jan-26 06:20 260 9 5.4 4.0
2020-Jan-26 05:50 260 11 5.4 4.0
2020-Jan-26 05:20 250 9 5.4 3.0
2020-Jan-26 04:50 250 12 5.4 4.0
2020-Jan-26 04:20 250 12 5.4 4.0
2020-Jan-26 03:50 250 12 5.4 3.0
2020-Jan-26 03:20 240 11 5.4 3.0
2020-Jan-26 02:50 250 9 5.4 3.0
2020-Jan-26 02:20 250 12 5.4 3.0
2020-Jan-26 01:50 240 13 5.4 3.0
2020-Jan-26 01:20 240 12 5.4 3.0
2020-Jan-26 00:50 230 12 5.4 3.0
2020-Jan-26 00:20 220 11 5.4 3.0
2020-Jan-25 23:50 210 8 5.4 3.0
2020-Jan-25 23:20 200 6 5.4 2.0
2020-Jan-25 22:50 190 6 5.4 1.0
2020-Jan-25 22:20 170 5 5.4-0.0
2020-Jan-25 21:50 190 5 5.4-0.0
2020-Jan-25 21:20 200 5 5.4-0.0
2020-Jan-25 20:50 230 6 5.4-1.0
2020-Jan-25 20:20 240 6 5.4-1.0
2020-Jan-25 19:50 240 4 5.4-2.0
2020-Jan-25 19:20 230 6 5.4-1.0
2020-Jan-25 18:50 240 6 5.4-2.0
2020-Jan-25 18:20 250 6 5.4-2.0
2020-Jan-25 17:50 240 5 5.4-1.0
2020-Jan-25 17:20 240 5 5.4-2.0
2020-Jan-25 16:50 250 6 5.4-2.0
2020-Jan-25 16:20 250 6 5.4-2.0
2020-Jan-25 15:50 260 6 5.4-3.0
2020-Jan-25 15:20 270 6 5.4-2.0
2020-Jan-25 14:50 280 6 5.4-1.0
2020-Jan-25 14:20 280 6 5.4-0.0
2020-Jan-25 13:50 290 7 5.4 1.0
2020-Jan-25 13:20 300 8 5.4 1.0
2020-Jan-25 12:50 300 6 5.4 2.0
2020-Jan-25 12:20 320 6 5.4 2.0
2020-Jan-25 11:50 320 7 5.4 2.0
2020-Jan-25 11:20 310 8 5.4 2.0
2020-Jan-25 10:50 310 7 5.4 2.0
2020-Jan-25 10:20 300 8 5.4 2.0
2020-Jan-25 09:50 310 11 5.4 2.0
2020-Jan-25 09:20 310 11 5.4 2.0
2020-Jan-25 08:50 310 9 5.4 2.0
2020-Jan-25 08:20 300 11 5.4 2.0
2020-Jan-25 07:50 300 9 5.4 2.0
2020-Jan-25 07:20 300 9 5.4 1.0
2020-Jan-25 06:50 300 9 5.4 1.0
2020-Jan-25 06:20 300 11 5.4 2.0
2020-Jan-25 05:50 300 9 5.4 2.0
2020-Jan-25 05:20 300 13 5.4 2.0
2020-Jan-25 04:50 300 13 gusting 25 5.4 2.0
2020-Jan-25 04:20 290 12 5.4 2.0
2020-Jan-25 03:50 290 13 5.4 2.0
2020-Jan-25 03:20 300 12 5.4 2.0
2020-Jan-25 02:50 300 11 gusting 20 5.4 2.0
2020-Jan-25 02:20 290 12 5.4 2.0
2020-Jan-25 01:50 290 12 5.4 2.0
2020-Jan-25 01:20 300 8 5.4 2.0
2020-Jan-25 00:50 300 12 5.4 3.0
2020-Jan-25 00:20 300 9 5.4 3.0
2020-Jan-24 23:50 300 11 5.4 3.0
2020-Jan-24 23:20 290 12 5.4 3.0
2020-Jan-24 22:50 290 11 5.4 3.0
2020-Jan-24 22:20 280 11 5.4 3.0
2020-Jan-24 21:50 280 9 5.4 2.0
2020-Jan-24 21:20 270 9 5.4 1.0
2020-Jan-24 20:50 260 9 5.4 1.0
2020-Jan-24 20:20 260 8 5.4-0.0
2020-Jan-24 19:50 260 8 5.4-0.0
2020-Jan-24 19:20 260 8 5.4-0.0
2020-Jan-24 18:50 250 7 5.4-0.0
2020-Jan-24 18:20 270 5 5.4-0.0
2020-Jan-24 17:50 260 4 5.4-0.0
2020-Jan-24 17:20 250 6 5.4-0.0
2020-Jan-24 16:50 240 5 5.4-1.0
2020-Jan-24 16:20 260 4 5.4-0.0
2020-Jan-24 15:50 260 6 5.4-0.0
2020-Jan-24 15:20 270 6 5.4-0.0
2020-Jan-24 14:50 260 6 5.4-0.0
2020-Jan-24 14:20 260 6 5.4 1.0
2020-Jan-24 13:50 260 7 5.4 2.0
2020-Jan-24 13:20 280 6 5.4 3.0
2020-Jan-24 12:50 260 6 5.4 2.0
2020-Jan-24 12:20 260 6 5.4 2.0
2020-Jan-24 11:50 280 5 5.4 2.0
2020-Jan-24 11:20 290 5 5.4 3.0 Light rain showers.
2020-Jan-24 10:50 270 6 5.4 2.0 Light rain.
2020-Jan-24 10:20 250 6 5.4 2.0